Time,TemperatureF,DewpointF,PressureIn,WindDirection,WindDirectionDegrees,WindSpeedMPH,WindSpeedGustMPH,Humidity,HourlyPrecipIn,Conditions,Clouds,dailyrainin,SolarRadiationWatts/m^2,SoftwareType,DateUTC
2013-08-13 00:01:00,83.8,38.4,29.76,East,84,2.0,3.0,20,0.00,,,0.00,0,WeatherCatV1.11B39,2013-08-13 07:01:00,
2013-08-13 00:06:00,83.4,38.1,29.76,East,83,1.0,1.0,20,0.00,,,0.00,0,WeatherCatV1.11B39,2013-08-13 07:06:00,
2013-08-13 00:11:00,82.9,38.9,29.76,East,84,0.0,2.0,21,0.00,,,0.00,0,WeatherCatV1.11B39,2013-08-13 07:11:00,
2013-08-13 00:16:00,82.5,38.6,29.76,East,83,1.0,2.0,21,0.00,,,0.00,0,WeatherCatV1.11B39,2013-08-13 07:16:00,
2013-08-13 00:21:00,82.4,38.5,29.76,East,83,2.0,3.0,21,0.00,,,0.00,0,WeatherCatV1.11B39,2013-08-13 07:21:00,
2013-08-13 00:26:00,82.5,38.6,29.76,East,83,2.0,2.0,21,0.00,,,0.00,0,WeatherCatV1.11B39,2013-08-13 07:26:00,
2013-08-13 00:31:00,82.8,37.6,29.76,East,85,1.0,5.0,20,0.00,,,0.00,0,WeatherCatV1.11B39,2013-08-13 07:31:00,
2013-08-13 00:36:00,82.8,37.6,29.76,East,85,0.0,1.0,20,0.00,,,0.00,0,WeatherCatV1.11B39,2013-08-13 07:36:00,
2013-08-13 00:41:00,82.5,38.6,29.76,East,85,3.0,3.0,21,0.00,,,0.00,0,WeatherCatV1.11B39,2013-08-13 07:41:00,
2013-08-13 00:46:00,82.0,38.2,29.76,East,85,0.0,2.0,21,0.00,,,0.00,0,WeatherCatV1.11B39,2013-08-13 07:46:00,
2013-08-13 00:51:00,81.5,37.8,29.76,East,85,1.0,2.0,21,0.00,,,0.00,0,WeatherCatV1.11B39,2013-08-13 07:51:00,
2013-08-13 00:56:00,81.2,37.5,29.76,East,85,0.0,2.0,21,0.00,,,0.00,0,WeatherCatV1.11B39,2013-08-13 07:56:00,
2013-08-13 01:01:00,81.2,37.5,29.76,East,85,0.0,2.0,21,0.00,,,0.00,0,WeatherCatV1.11B39,2013-08-13 08:01:00,
2013-08-13 01:06:00,80.9,38.5,29.76,East,85,0.0,1.0,22,0.00,,,0.00,0,WeatherCatV1.11B39,2013-08-13 08:06:00,
2013-08-13 01:11:00,80.4,39.2,29.76,East,85,2.0,2.0,23,0.00,,,0.00,0,WeatherCatV1.11B39,2013-08-13 08:11:00,
2013-08-13 01:16:00,80.0,38.9,29.76,East,85,0.0,2.0,23,0.00,,,0.00,0,WeatherCatV1.11B39,2013-08-13 08:16:00,
2013-08-13 01:21:00,79.4,39.4,29.76,East,85,0.0,1.0,24,0.00,,,0.00,0,WeatherCatV1.11B39,2013-08-13 08:21:00,
2013-08-13 01:26:00,78.7,39.9,29.76,East,85,1.0,1.0,25,0.00,,,0.00,0,WeatherCatV1.11B39,2013-08-13 08:26:00,
2013-08-13 01:31:00,78.2,39.5,29.77,East,85,0.0,3.0,25,0.00,,,0.00,0,WeatherCatV1.11B39,2013-08-13 08:31:00,
2013-08-13 01:36:00,78.3,40.6,29.77,East,85,1.0,1.0,26,0.00,,,0.00,0,WeatherCatV1.11B39,2013-08-13 08:36:00,
2013-08-13 01:41:00,78.2,40.5,29.77,East,85,2.0,2.0,26,0.00,,,0.00,0,WeatherCatV1.11B39,2013-08-13 08:41:00,
2013-08-13 01:46:00,78.4,40.7,29.77,East,85,2.0,2.0,26,0.00,,,0.00,0,WeatherCatV1.11B39,2013-08-13 08:46:00,
2013-08-13 01:51:00,78.1,41.4,29.77,East,85,0.0,2.0,27,0.00,,,0.00,0,WeatherCatV1.11B39,2013-08-13 08:51:00,
2013-08-13 01:56:00,77.6,41.0,29.77,East,85,0.0,1.0,27,0.00,,,0.00,0,WeatherCatV1.11B39,2013-08-13 08:56:00,
2013-08-13 02:01:00,77.0,42.3,29.77,East,85,1.0,2.0,29,0.00,,,0.00,0,WeatherCatV1.11B39,2013-08-13 09:01:00,
2013-08-13 02:06:00,76.3,41.7,29.77,East,85,0.0,2.0,29,0.00,,,0.00,0,WeatherCatV1.11B39,2013-08-13 09:06:00,
2013-08-13 02:11:00,76.2,41.6,29.77,East,85,1.0,2.0,29,0.00,,,0.00,0,WeatherCatV1.11B39,2013-08-13 09:11:00,
2013-08-13 02:16:00,75.8,42.1,29.77,East,85,1.0,1.0,30,0.00,,,0.00,0,WeatherCatV1.11B39,2013-08-13 09:16:00,
2013-08-13 02:21:00,75.3,42.6,29.77,East,85,1.0,2.0,31,0.00,,,0.00,0,WeatherCatV1.11B39,2013-08-13 09:21:00,
2013-08-13 02:26:00,75.0,42.3,29.77,East,85,0.0,1.0,31,0.00,,,0.00,0,WeatherCatV1.11B39,2013-08-13 09:26:00,
2013-08-13 02:31:00,74.9,41.4,29.76,East,85,1.0,2.0,30,0.00,,,0.00,0,WeatherCatV1.11B39,2013-08-13 09:31:00,
2013-08-13 02:36:00,75.3,40.8,29.76,East,85,1.0,2.0,29,0.00,,,0.00,0,WeatherCatV1.11B39,2013-08-13 09:36:00,
2013-08-13 02:41:00,75.6,41.1,29.76,East,85,1.0,2.0,29,0.00,,,0.00,0,WeatherCatV1.11B39,2013-08-13 09:41:00,
2013-08-13 02:46:00,75.4,40.9,29.76,East,85,1.0,1.0,29,0.00,,,0.00,0,WeatherCatV1.11B39,2013-08-13 09:46:00,
2013-08-13 02:51:00,75.7,41.2,29.76,East,85,1.0,1.0,29,0.00,,,0.00,0,WeatherCatV1.11B39,2013-08-13 09:51:00,
2013-08-13 02:56:00,75.7,42.1,29.76,East,85,0.0,0.0,30,0.00,,,0.00,0,WeatherCatV1.11B39,2013-08-13 09:56:00,
2013-08-13 03:01:00,75.0,42.3,29.76,East,85,0.0,1.0,31,0.00,,,0.00,0,WeatherCatV1.11B39,2013-08-13 10:01:00,
2013-08-13 03:06:00,74.6,42.8,29.76,East,85,0.0,1.0,32,0.00,,,0.00,0,WeatherCatV1.11B39,2013-08-13 10:06:00,
2013-08-13 03:11:00,74.4,42.6,29.76,East,85,1.0,2.0,32,0.00,,,0.00,0,WeatherCatV1.11B39,2013-08-13 10:11:00,
2013-08-13 03:16:00,74.3,42.5,29.77,East,85,1.0,2.0,32,0.00,,,0.00,0,WeatherCatV1.11B39,2013-08-13 10:16:00,
2013-08-13 03:21:00,74.2,43.2,29.77,East,85,1.0,2.0,33,0.00,,,0.00,0,WeatherCatV1.11B39,2013-08-13 10:21:00,
2013-08-13 03:26:00,73.8,42.9,29.77,East,85,1.0,2.0,33,0.00,,,0.00,0,WeatherCatV1.11B39,2013-08-13 10:26:00,
2013-08-13 03:31:00,73.5,42.6,29.77,East,85,1.0,1.0,33,0.00,,,0.00,0,WeatherCatV1.11B39,2013-08-13 10:31:00,
2013-08-13 03:36:00,73.2,43.1,29.77,East,85,0.0,2.0,34,0.00,,,0.00,0,WeatherCatV1.11B39,2013-08-13 10:36:00,
2013-08-13 03:41:00,72.8,42.8,29.77,East,85,0.0,1.0,34,0.00,,,0.00,0,WeatherCatV1.11B39,2013-08-13 10:41:00,
2013-08-13 03:46:00,72.7,42.7,29.77,East,85,0.0,0.0,34,0.00,,,0.00,0,WeatherCatV1.11B39,2013-08-13 10:46:00,
2013-08-13 03:51:00,72.3,43.1,29.76,East,85,0.0,1.0,35,0.00,,,0.00,0,WeatherCatV1.11B39,2013-08-13 10:51:00,
2013-08-13 03:56:00,72.4,42.4,29.77,East,85,0.0,0.0,34,0.00,,,0.00,0,WeatherCatV1.11B39,2013-08-13 10:56:00,
2013-08-13 04:01:00,72.1,42.9,29.77,East,85,0.0,0.0,35,0.00,,,0.00,0,WeatherCatV1.11B39,2013-08-13 11:01:00,
2013-08-13 04:06:00,72.0,42.8,29.77,East,85,0.0,0.0,35,0.00,,,0.00,0,WeatherCatV1.11B39,2013-08-13 11:06:00,
2013-08-13 04:11:00,71.8,43.4,29.76,East,85,0.0,0.0,36,0.00,,,0.00,0,WeatherCatV1.11B39,2013-08-13 11:11:00,
2013-08-13 04:16:00,71.6,43.2,29.77,East,85,0.0,0.0,36,0.00,,,0.00,0,WeatherCatV1.11B39,2013-08-13 11:16:00,
2013-08-13 04:21:00,71.2,44.3,29.77,East,85,1.0,2.0,38,0.00,,,0.00,0,WeatherCatV1.11B39,2013-08-13 11:21:00,
2013-08-13 04:26:00,70.6,43.7,29.76,East,85,0.0,1.0,38,0.00,,,0.00,0,WeatherCatV1.11B39,2013-08-13 11:26:00,
2013-08-13 04:29:00,70.4,43.6,29.76,East,85,0.0,0.0,38,0.00,,,0.00,0,WeatherCatV1.11B39,2013-08-13 11:29:00,
2013-08-13 04:34:00,70.4,43.6,29.76,East,85,0.0,1.0,38,0.00,,,0.00,0,WeatherCatV1.11B39,2013-08-13 11:34:00,
2013-08-13 04:39:00,70.5,43.7,29.76,East,85,1.0,1.0,38,0.00,,,0.00,0,WeatherCatV1.11B39,2013-08-13 11:39:00,
2013-08-13 04:44:00,70.0,43.9,29.77,East,85,1.0,1.0,39,0.00,,,0.00,0,WeatherCatV1.11B39,2013-08-13 11:44:00,
2013-08-13 04:49:00,70.0,43.2,29.77,East,85,0.0,1.0,38,0.00,,,0.00,0,WeatherCatV1.11B39,2013-08-13 11:49:00,
2013-08-13 04:54:00,70.0,43.9,29.77,East,85,0.0,1.0,39,0.00,,,0.00,0,WeatherCatV1.11B39,2013-08-13 11:54:00,
2013-08-13 04:59:00,69.6,44.2,29.77,East,85,0.0,0.0,40,0.00,,,0.00,0,WeatherCatV1.11B39,2013-08-13 11:59:00,
2013-08-13 05:04:00,69.6,43.5,29.77,East,85,0.0,1.0,39,0.00,,,0.00,0,WeatherCatV1.11B39,2013-08-13 12:04:00,
2013-08-13 05:09:00,69.0,44.3,29.77,East,85,0.0,0.0,41,0.00,,,0.00,0,WeatherCatV1.11B39,2013-08-13 12:09:00,
2013-08-13 05:14:00,68.7,44.0,29.78,East,85,0.0,0.0,41,0.00,,,0.00,0,WeatherCatV1.11B39,2013-08-13 12:14:00,
2013-08-13 05:19:00,69.1,44.4,29.78,East,85,0.0,0.0,41,0.00,,,0.00,0,WeatherCatV1.11B39,2013-08-13 12:19:00,
2013-08-13 05:24:00,68.9,44.2,29.79,East,85,0.0,0.0,41,0.00,,,0.00,0,WeatherCatV1.11B39,2013-08-13 12:24:00,
2013-08-13 05:29:00,68.6,44.0,29.79,East,85,1.0,1.0,41,0.00,,,0.00,0,WeatherCatV1.11B39,2013-08-13 12:29:00,
2013-08-13 05:34:00,68.6,44.0,29.79,East,85,1.0,1.0,41,0.00,,,0.00,0,WeatherCatV1.11B39,2013-08-13 12:34:00,
2013-08-13 05:39:00,68.8,43.5,29.79,East,85,0.0,1.0,40,0.00,,,0.00,5,WeatherCatV1.11B39,2013-08-13 12:39:00,
2013-08-13 05:44:00,69.4,44.0,29.79,East,85,1.0,1.0,40,0.00,,,0.00,5,WeatherCatV1.11B39,2013-08-13 12:44:00,
2013-08-13 05:49:00,69.6,43.5,29.80,East,84,1.0,2.0,39,0.00,,,0.00,5,WeatherCatV1.11B39,2013-08-13 12:49:00,
2013-08-13 05:54:00,69.5,44.1,29.80,East,84,2.0,3.0,40,0.00,,,0.00,9,WeatherCatV1.11B39,2013-08-13 12:54:00,
2013-08-13 05:59:00,69.9,43.8,29.80,East,84,0.0,2.0,39,0.00,,,0.00,14,WeatherCatV1.11B39,2013-08-13 12:59:00,
2013-08-13 06:04:00,70.3,43.5,29.81,East,84,0.0,1.0,38,0.00,,,0.00,19,WeatherCatV1.11B39,2013-08-13 13:04:00,
2013-08-13 06:09:00,70.6,43.7,29.81,East,84,1.0,1.0,38,0.00,,,0.00,25,WeatherCatV1.11B39,2013-08-13 13:09:00,
2013-08-13 06:14:00,70.7,44.5,29.81,East,84,1.0,3.0,39,0.00,,,0.00,32,WeatherCatV1.11B39,2013-08-13 13:14:00,
2013-08-13 06:19:00,70.8,44.6,29.81,East,84,1.0,3.0,39,0.00,,,0.00,39,WeatherCatV1.11B39,2013-08-13 13:19:00,
2013-08-13 06:24:00,71.5,44.5,29.82,East,84,0.0,2.0,38,0.00,,,0.00,53,WeatherCatV1.11B39,2013-08-13 13:24:00,
2013-08-13 06:29:00,72.1,45.1,29.82,East,84,0.0,2.0,38,0.00,,,0.00,58,WeatherCatV1.11B39,2013-08-13 13:29:00,
2013-08-13 06:34:00,72.8,45.0,29.82,East,84,0.0,1.0,37,0.00,,,0.00,67,WeatherCatV1.11B39,2013-08-13 13:34:00,
2013-08-13 06:39:00,73.4,45.5,29.82,East,84,0.0,0.0,37,0.00,,,0.00,76,WeatherCatV1.11B39,2013-08-13 13:39:00,
2013-08-13 06:44:00,73.3,47.5,29.82,East,86,0.0,1.0,40,0.00,,,0.00,86,WeatherCatV1.11B39,2013-08-13 13:44:00,
2013-08-13 06:49:00,73.6,48.4,29.83,East,86,0.0,0.0,41,0.00,,,0.00,98,WeatherCatV1.11B39,2013-08-13 13:49:00,
2013-08-13 06:54:00,73.8,48.0,29.83,East,86,0.0,0.0,40,0.00,,,0.00,65,WeatherCatV1.11B39,2013-08-13 13:54:00,
2013-08-13 06:59:00,74.3,47.7,29.83,East,86,0.0,0.0,39,0.00,,,0.00,116,WeatherCatV1.11B39,2013-08-13 13:59:00,
2013-08-13 07:04:00,74.6,47.3,29.83,East,86,0.0,0.0,38,0.00,,,0.00,63,WeatherCatV1.11B39,2013-08-13 14:04:00,
2013-08-13 07:09:00,75.0,49.0,29.83,East,86,0.0,0.0,40,0.00,,,0.00,144,WeatherCatV1.11B39,2013-08-13 14:09:00,
2013-08-13 07:14:00,75.8,49.1,29.83,East,86,0.0,1.0,39,0.00,,,0.00,169,WeatherCatV1.11B39,2013-08-13 14:14:00,
2013-08-13 07:19:00,76.9,48.6,29.83,East,86,0.0,0.0,37,0.00,,,0.00,181,WeatherCatV1.11B39,2013-08-13 14:19:00,
2013-08-13 07:24:00,78.2,49.8,29.83,East,86,0.0,1.0,37,0.00,,,0.00,206,WeatherCatV1.11B39,2013-08-13 14:24:00,
2013-08-13 07:29:00,79.5,48.6,29.83,East,86,1.0,1.0,34,0.00,,,0.00,230,WeatherCatV1.11B39,2013-08-13 14:29:00,
2013-08-13 07:34:00,80.8,48.2,29.83,East,86,0.0,1.0,32,0.00,,,0.00,250,WeatherCatV1.11B39,2013-08-13 14:34:00,
2013-08-13 07:39:00,81.8,45.5,29.83,East,86,0.0,1.0,28,0.00,,,0.00,287,WeatherCatV1.11B39,2013-08-13 14:39:00,
2013-08-13 07:44:00,82.6,45.2,29.83,East,86,1.0,2.0,27,0.00,,,0.00,308,WeatherCatV1.11B39,2013-08-13 14:44:00,
2013-08-13 07:49:00,83.4,45.9,29.83,East,84,1.0,3.0,27,0.00,,,0.00,304,WeatherCatV1.11B39,2013-08-13 14:49:00,
2013-08-13 07:54:00,83.8,45.2,29.83,East,84,0.0,2.0,26,0.00,,,0.00,322,WeatherCatV1.11B39,2013-08-13 14:54:00,
2013-08-13 07:59:00,84.2,44.5,29.83,East,85,2.0,2.0,25,0.00,,,0.00,367,WeatherCatV1.11B39,2013-08-13 14:59:00,
2013-08-13 08:04:00,84.4,44.7,29.83,East,85,0.0,1.0,25,0.00,,,0.00,357,WeatherCatV1.11B39,2013-08-13 15:04:00,
2013-08-13 08:09:00,85.3,44.4,29.84,East,85,2.0,2.0,24,0.00,,,0.00,394,WeatherCatV1.11B39,2013-08-13 15:09:00,
2013-08-13 08:14:00,86.0,45.0,29.84,East,85,0.0,2.0,24,0.00,,,0.00,396,WeatherCatV1.11B39,2013-08-13 15:14:00,
2013-08-13 08:19:00,86.0,43.9,29.84,East,84,1.0,2.0,23,0.00,,,0.00,399,WeatherCatV1.11B39,2013-08-13 15:19:00,
2013-08-13 08:24:00,86.4,44.2,29.84,East,84,0.0,2.0,23,0.00,,,0.00,431,WeatherCatV1.11B39,2013-08-13 15:24:00,
2013-08-13 08:29:00,86.9,44.6,29.84,East,85,2.0,3.0,23,0.00,,,0.00,475,WeatherCatV1.11B39,2013-08-13 15:29:00,
2013-08-13 08:34:00,87.4,43.9,29.84,East,83,1.0,3.0,22,0.00,,,0.00,455,WeatherCatV1.11B39,2013-08-13 15:34:00,
2013-08-13 08:39:00,87.5,42.7,29.84,East,83,3.0,3.0,21,0.00,,,0.00,432,WeatherCatV1.11B39,2013-08-13 15:39:00,
2013-08-13 08:44:00,87.9,43.1,29.84,ENE,78,1.0,3.0,21,0.00,,,0.00,394,WeatherCatV1.11B39,2013-08-13 15:44:00,
2013-08-13 08:49:00,88.0,44.4,29.84,ENE,77,2.0,3.0,22,0.00,,,0.00,406,WeatherCatV1.11B39,2013-08-13 15:49:00,
2013-08-13 08:54:00,88.2,43.3,29.84,WNW,284,4.0,4.0,21,0.00,,,0.00,466,WeatherCatV1.11B39,2013-08-13 15:54:00,
2013-08-13 08:59:00,88.7,42.4,29.83,WNW,286,2.0,4.0,20,0.00,,,0.00,469,WeatherCatV1.11B39,2013-08-13 15:59:00,
2013-08-13 09:04:00,88.7,42.4,29.83,West,262,3.0,4.0,20,0.00,,,0.00,534,WeatherCatV1.11B39,2013-08-13 16:04:00,
2013-08-13 09:09:00,89.0,42.7,29.83,West,263,0.0,2.0,20,0.00,,,0.00,578,WeatherCatV1.11B39,2013-08-13 16:09:00,
2013-08-13 09:14:00,89.7,41.9,29.83,WNW,289,1.0,3.0,19,0.00,,,0.00,589,WeatherCatV1.11B39,2013-08-13 16:14:00,
2013-08-13 09:19:00,91.2,43.1,29.83,WSW,244,3.0,5.0,19,0.00,,,0.00,601,WeatherCatV1.11B39,2013-08-13 16:19:00,
2013-08-13 09:24:00,91.1,41.7,29.83,WSW,244,0.0,0.0,18,0.00,,,0.00,610,WeatherCatV1.11B39,2013-08-13 16:24:00,
2013-08-13 09:29:00,91.3,41.8,29.83,SW,217,2.0,3.0,18,0.00,,,0.00,626,WeatherCatV1.11B39,2013-08-13 16:29:00,
2013-08-13 09:34:00,91.8,42.2,29.83,SW,235,1.0,5.0,18,0.00,,,0.00,610,WeatherCatV1.11B39,2013-08-13 16:34:00,
2013-08-13 09:39:00,91.8,43.6,29.84,SSW,207,3.0,5.0,19,0.00,,,0.00,701,WeatherCatV1.11B39,2013-08-13 16:39:00,
2013-08-13 09:44:00,92.7,41.5,29.84,WNW,283,4.0,6.0,17,0.00,,,0.00,726,WeatherCatV1.11B39,2013-08-13 16:44:00,
2013-08-13 09:49:00,92.3,42.6,29.83,West,280,3.0,5.0,18,0.00,,,0.00,715,WeatherCatV1.11B39,2013-08-13 16:49:00,
2013-08-13 09:54:00,93.2,41.9,29.83,WSW,255,2.0,4.0,17,0.00,,,0.00,684,WeatherCatV1.11B39,2013-08-13 16:54:00,
2013-08-13 09:59:00,93.3,40.4,29.83,WSW,249,2.0,5.0,16,0.00,,,0.00,721,WeatherCatV1.11B39,2013-08-13 16:59:00,
2013-08-13 10:04:00,92.2,41.1,29.83,NNW,336,0.0,1.0,17,0.00,,,0.00,712,WeatherCatV1.11B39,2013-08-13 17:04:00,
2013-08-13 10:12:00,94.3,42.7,29.83,SW,229,4.0,5.0,17,0.00,,,0.00,712,WeatherCatV1.11B39,2013-08-13 17:12:00,
2013-08-13 10:17:00,94.7,41.5,29.83,SSW,195,2.0,4.0,16,0.00,,,0.00,772,WeatherCatV1.11B39,2013-08-13 17:17:00,
2013-08-13 10:22:00,93.7,40.7,29.83,NW,306,3.0,5.0,16,0.00,,,0.00,803,WeatherCatV1.11B39,2013-08-13 17:22:00,
2013-08-13 10:27:00,94.3,41.2,29.83,NW,319,2.0,4.0,16,0.00,,,0.00,807,WeatherCatV1.11B39,2013-08-13 17:27:00,
2013-08-13 10:32:00,94.7,41.5,29.83,SW,214,3.0,5.0,16,0.00,,,0.00,786,WeatherCatV1.11B39,2013-08-13 17:32:00,
2013-08-13 10:37:00,94.2,39.4,29.83,SE,131,0.0,4.0,15,0.00,,,0.00,782,WeatherCatV1.11B39,2013-08-13 17:37:00,
2013-08-13 10:42:00,95.5,43.7,29.82,NNE,26,3.0,5.0,17,0.00,,,0.00,770,WeatherCatV1.11B39,2013-08-13 17:42:00,
2013-08-13 10:47:00,96.9,39.8,29.82,SW,234,2.0,5.0,14,0.00,,,0.00,817,WeatherCatV1.11B39,2013-08-13 17:47:00,
2013-08-13 10:52:00,96.5,39.5,29.82,West,272,5.0,7.0,14,0.00,,,0.00,838,WeatherCatV1.11B39,2013-08-13 17:52:00,
2013-08-13 10:57:00,97.0,39.9,29.82,West,281,4.0,6.0,14,0.00,,,0.00,831,WeatherCatV1.11B39,2013-08-13 17:57:00,
2013-08-13 11:02:00,97.1,39.9,29.82,NW,304,6.0,8.0,14,0.00,,,0.00,830,WeatherCatV1.11B39,2013-08-13 18:02:00,
2013-08-13 11:07:00,96.5,41.2,29.82,WNW,291,7.0,7.0,15,0.00,,,0.00,860,WeatherCatV1.11B39,2013-08-13 18:07:00,
2013-08-13 11:12:00,97.5,40.2,29.82,NW,308,4.0,7.0,14,0.00,,,0.00,889,WeatherCatV1.11B39,2013-08-13 18:12:00,
2013-08-13 11:17:00,98.7,41.2,29.82,SSW,211,4.0,9.0,14,0.00,,,0.00,907,WeatherCatV1.11B39,2013-08-13 18:17:00,
2013-08-13 11:22:00,99.3,39.7,29.81,West,271,6.0,7.0,13,0.00,,,0.00,926,WeatherCatV1.11B39,2013-08-13 18:22:00,
2013-08-13 11:27:00,99.0,41.4,29.81,WSW,238,6.0,8.0,14,0.00,,,0.00,921,WeatherCatV1.11B39,2013-08-13 18:27:00,
2013-08-13 11:32:00,98.5,41.0,29.81,SW,226,8.0,8.0,14,0.00,,,0.00,909,WeatherCatV1.11B39,2013-08-13 18:32:00,
2013-08-13 11:37:00,99.3,39.7,29.80,West,267,4.0,5.0,13,0.00,,,0.00,889,WeatherCatV1.11B39,2013-08-13 18:37:00,
2013-08-13 11:42:00,99.2,41.6,29.80,West,280,2.0,8.0,14,0.00,,,0.00,788,WeatherCatV1.11B39,2013-08-13 18:42:00,
2013-08-13 11:47:00,99.7,42.0,29.80,West,265,4.0,9.0,14,0.00,,,0.00,831,WeatherCatV1.11B39,2013-08-13 18:47:00,
2013-08-13 11:52:00,99.1,39.6,29.80,NW,309,5.0,8.0,13,0.00,,,0.00,932,WeatherCatV1.11B39,2013-08-13 18:52:00,
2013-08-13 11:57:00,98.7,41.2,29.80,West,278,7.0,8.0,14,0.00,,,0.00,889,WeatherCatV1.11B39,2013-08-13 18:57:00,
2013-08-13 12:02:00,99.0,41.4,29.80,SSW,211,0.0,7.0,14,0.00,,,0.00,923,WeatherCatV1.11B39,2013-08-13 19:02:00,
2013-08-13 12:07:00,100.1,42.3,29.79,SW,221,3.0,9.0,14,0.00,,,0.00,884,WeatherCatV1.11B39,2013-08-13 19:07:00,
2013-08-13 12:12:00,100.2,42.4,29.79,West,272,1.0,9.0,14,0.00,,,0.00,719,WeatherCatV1.11B39,2013-08-13 19:12:00,
2013-08-13 12:17:00,99.4,41.7,29.78,West,263,5.0,5.0,14,0.00,,,0.00,698,WeatherCatV1.11B39,2013-08-13 19:17:00,
2013-08-13 12:22:00,99.8,42.0,29.78,West,261,8.0,9.0,14,0.00,,,0.00,680,WeatherCatV1.11B39,2013-08-13 19:22:00,
2013-08-13 12:27:00,99.8,42.0,29.78,SSW,209,5.0,7.0,14,0.00,,,0.00,759,WeatherCatV1.11B39,2013-08-13 19:27:00,
2013-08-13 12:32:00,100.1,42.3,29.78,SW,227,0.0,6.0,14,0.00,,,0.00,707,WeatherCatV1.11B39,2013-08-13 19:32:00,
2013-08-13 12:37:00,99.5,41.8,29.78,South,182,2.0,5.0,14,0.00,,,0.00,800,WeatherCatV1.11B39,2013-08-13 19:37:00,
2013-08-13 12:42:00,100.3,42.4,29.78,SSW,211,1.0,5.0,14,0.00,,,0.00,911,WeatherCatV1.11B39,2013-08-13 19:42:00,
2013-08-13 12:47:00,101.2,43.1,29.77,West,269,4.0,5.0,14,0.00,,,0.00,909,WeatherCatV1.11B39,2013-08-13 19:47:00,
2013-08-13 12:52:00,101.2,43.1,29.77,WSW,257,4.0,7.0,14,0.00,,,0.00,921,WeatherCatV1.11B39,2013-08-13 19:52:00,
2013-08-13 12:57:00,101.4,43.3,29.77,WNW,294,3.0,4.0,14,0.00,,,0.00,962,WeatherCatV1.11B39,2013-08-13 19:57:00,
2013-08-13 13:02:00,101.6,41.5,29.77,West,265,4.0,5.0,13,0.00,,,0.00,937,WeatherCatV1.11B39,2013-08-13 20:02:00,
2013-08-13 13:07:00,100.9,42.9,29.77,West,270,10.0,12.0,14,0.00,,,0.00,875,WeatherCatV1.11B39,2013-08-13 20:07:00,
2013-08-13 13:12:00,101.0,43.0,29.77,SW,221,3.0,9.0,14,0.00,,,0.00,939,WeatherCatV1.11B39,2013-08-13 20:12:00,
2013-08-13 13:17:00,101.7,43.5,29.76,SSE,168,7.0,7.0,14,0.00,,,0.00,888,WeatherCatV1.11B39,2013-08-13 20:17:00,
2013-08-13 13:22:00,102.9,42.5,29.76,SW,231,4.0,10.0,13,0.00,,,0.00,905,WeatherCatV1.11B39,2013-08-13 20:22:00,
2013-08-13 13:27:00,102.5,42.2,29.76,West,274,7.0,8.0,13,0.00,,,0.00,912,WeatherCatV1.11B39,2013-08-13 20:27:00,
2013-08-13 13:32:00,102.7,42.4,29.76,NW,313,3.0,6.0,13,0.00,,,0.00,937,WeatherCatV1.11B39,2013-08-13 20:32:00,
2013-08-13 13:37:00,102.0,41.8,29.76,WSW,241,8.0,11.0,13,0.00,,,0.00,954,WeatherCatV1.11B39,2013-08-13 20:37:00,
2013-08-13 13:42:00,103.7,43.1,29.75,SSW,195,5.0,8.0,13,0.00,,,0.00,962,WeatherCatV1.11B39,2013-08-13 20:42:00,
2013-08-13 13:47:00,104.1,43.5,29.75,SSW,213,5.0,10.0,13,0.00,,,0.00,954,WeatherCatV1.11B39,2013-08-13 20:47:00,
2013-08-13 13:52:00,103.9,41.2,29.75,WNW,303,2.0,12.0,12,0.00,,,0.00,969,WeatherCatV1.11B39,2013-08-13 20:52:00,
2013-08-13 13:57:00,102.5,40.1,29.75,West,280,8.0,11.0,12,0.00,,,0.00,775,WeatherCatV1.11B39,2013-08-13 20:57:00,
2013-08-13 14:02:00,102.4,40.1,29.74,WNW,285,7.0,11.0,12,0.00,,,0.00,722,WeatherCatV1.11B39,2013-08-13 21:02:00,
2013-08-13 14:07:00,102.9,40.5,29.74,SW,231,4.0,7.0,12,0.00,,,0.00,831,WeatherCatV1.11B39,2013-08-13 21:07:00,
2013-08-13 14:12:00,103.4,40.8,29.74,South,186,6.0,8.0,12,0.00,,,0.00,823,WeatherCatV1.11B39,2013-08-13 21:12:00,
2013-08-13 14:17:00,104.1,41.4,29.74,WSW,237,6.0,13.0,12,0.00,,,0.00,837,WeatherCatV1.11B39,2013-08-13 21:17:00,
2013-08-13 14:22:00,103.8,41.1,29.74,WNW,298,4.0,8.0,12,0.00,,,0.00,974,WeatherCatV1.11B39,2013-08-13 21:22:00,
2013-08-13 14:27:00,104.5,41.7,29.73,West,269,10.0,10.0,12,0.00,,,0.00,1005,WeatherCatV1.11B39,2013-08-13 21:27:00,
2013-08-13 14:32:00,104.1,41.4,29.73,West,259,10.0,17.0,12,0.00,,,0.00,1005,WeatherCatV1.11B39,2013-08-13 21:32:00,
2013-08-13 14:37:00,103.0,42.6,29.73,WSW,242,4.0,4.0,13,0.00,,,0.00,796,WeatherCatV1.11B39,2013-08-13 21:37:00,
2013-08-13 14:42:00,102.6,42.3,29.73,NW,309,6.0,11.0,13,0.00,,,0.00,306,WeatherCatV1.11B39,2013-08-13 21:42:00,
2013-08-13 14:47:00,101.9,41.8,29.72,WNW,284,6.0,9.0,13,0.00,,,0.00,283,WeatherCatV1.11B39,2013-08-13 21:47:00,
2013-08-13 14:52:00,101.4,41.4,29.72,NW,320,5.0,7.0,13,0.00,,,0.00,294,WeatherCatV1.11B39,2013-08-13 21:52:00,
2013-08-13 14:57:00,102.1,41.9,29.72,SW,222,6.0,8.0,13,0.00,,,0.00,772,WeatherCatV1.11B39,2013-08-13 21:57:00,
2013-08-13 15:02:00,102.1,39.8,29.72,WSW,245,1.0,5.0,12,0.00,,,0.00,309,WeatherCatV1.11B39,2013-08-13 22:02:00,
2013-08-13 15:07:00,102.6,42.3,29.71,West,259,4.0,10.0,13,0.00,,,0.00,896,WeatherCatV1.11B39,2013-08-13 22:07:00,
2013-08-13 15:12:00,104.6,39.5,29.71,SW,222,8.0,9.0,11,0.00,,,0.00,828,WeatherCatV1.11B39,2013-08-13 22:12:00,
2013-08-13 15:17:00,104.3,41.5,29.71,West,265,8.0,9.0,12,0.00,,,0.00,731,WeatherCatV1.11B39,2013-08-13 22:17:00,
2013-08-13 15:22:00,103.9,41.2,29.70,WNW,290,6.0,7.0,12,0.00,,,0.00,707,WeatherCatV1.11B39,2013-08-13 22:22:00,
2013-08-13 15:27:00,103.5,40.9,29.70,WNW,297,6.0,12.0,12,0.00,,,0.00,631,WeatherCatV1.11B39,2013-08-13 22:27:00,
2013-08-13 15:32:00,103.2,40.7,29.70,WSW,253,7.0,10.0,12,0.00,,,0.00,652,WeatherCatV1.11B39,2013-08-13 22:32:00,
2013-08-13 15:37:00,103.2,40.7,29.70,WSW,245,7.0,12.0,12,0.00,,,0.00,587,WeatherCatV1.11B39,2013-08-13 22:37:00,
2013-08-13 15:42:00,103.0,40.5,29.69,West,261,6.0,11.0,12,0.00,,,0.00,696,WeatherCatV1.11B39,2013-08-13 22:42:00,
2013-08-13 15:47:00,103.7,41.1,29.70,WSW,242,8.0,12.0,12,0.00,,,0.00,689,WeatherCatV1.11B39,2013-08-13 22:47:00,
2013-08-13 15:52:00,103.0,40.5,29.69,NW,321,6.0,9.0,12,0.00,,,0.00,656,WeatherCatV1.11B39,2013-08-13 22:52:00,
2013-08-13 15:57:00,103.2,38.5,29.69,NW,304,12.0,13.0,11,0.00,,,0.00,606,WeatherCatV1.11B39,2013-08-13 22:57:00,
2013-08-13 16:02:00,103.1,38.4,29.69,WNW,291,9.0,14.0,11,0.00,,,0.00,612,WeatherCatV1.11B39,2013-08-13 23:02:00,
2013-08-13 16:07:00,103.0,40.5,29.69,WSW,247,6.0,11.0,12,0.00,,,0.00,564,WeatherCatV1.11B39,2013-08-13 23:07:00,
2013-08-13 16:12:00,103.0,38.3,29.69,West,280,7.0,9.0,11,0.00,,,0.00,568,WeatherCatV1.11B39,2013-08-13 23:12:00,
2013-08-13 16:17:00,102.7,38.1,29.69,West,269,5.0,13.0,11,0.00,,,0.00,496,WeatherCatV1.11B39,2013-08-13 23:17:00,
2013-08-13 16:22:00,103.3,40.8,29.69,WNW,300,9.0,13.0,12,0.00,,,0.00,471,WeatherCatV1.11B39,2013-08-13 23:22:00,
2013-08-13 16:27:00,103.3,38.5,29.68,West,274,13.0,14.0,11,0.00,,,0.00,513,WeatherCatV1.11B39,2013-08-13 23:27:00,
2013-08-13 16:32:00,103.0,38.3,29.68,West,273,9.0,12.0,11,0.00,,,0.00,494,WeatherCatV1.11B39,2013-08-13 23:32:00,
2013-08-13 16:37:00,102.3,40.0,29.68,West,268,8.0,12.0,12,0.00,,,0.00,448,WeatherCatV1.11B39,2013-08-13 23:37:00,
2013-08-13 16:42:00,102.7,40.3,29.68,West,262,7.0,8.0,12,0.00,,,0.00,452,WeatherCatV1.11B39,2013-08-13 23:42:00,
2013-08-13 16:47:00,102.6,40.2,29.68,SSW,198,7.0,9.0,12,0.00,,,0.00,438,WeatherCatV1.11B39,2013-08-13 23:47:00,
2013-08-13 16:52:00,102.0,39.8,29.68,WSW,249,11.0,13.0,12,0.00,,,0.00,418,WeatherCatV1.11B39,2013-08-13 23:52:00,
2013-08-13 16:57:00,101.9,39.7,29.68,WNW,290,8.0,11.0,12,0.00,,,0.00,410,WeatherCatV1.11B39,2013-08-13 23:57:00,
2013-08-13 17:02:00,102.3,40.0,29.68,WNW,302,9.0,12.0,12,0.00,,,0.00,362,WeatherCatV1.11B39,2013-08-14 00:02:00,
2013-08-13 17:07:00,102.4,40.1,29.68,WSW,238,12.0,12.0,12,0.00,,,0.00,380,WeatherCatV1.11B39,2013-08-14 00:07:00,
2013-08-13 17:12:00,101.7,39.5,29.68,West,267,6.0,11.0,12,0.00,,,0.00,283,WeatherCatV1.11B39,2013-08-14 00:12:00,
2013-08-13 17:17:00,101.3,39.2,29.68,West,278,5.0,11.0,12,0.00,,,0.00,339,WeatherCatV1.11B39,2013-08-14 00:17:00,
2013-08-13 17:22:00,101.3,39.2,29.68,West,278,11.0,16.0,12,0.00,,,0.00,311,WeatherCatV1.11B39,2013-08-14 00:22:00,
2013-08-13 17:27:00,100.7,38.8,29.68,West,265,5.0,10.0,12,0.00,,,0.00,302,WeatherCatV1.11B39,2013-08-14 00:27:00,
2013-08-13 17:32:00,100.9,41.0,29.68,West,278,8.0,9.0,13,0.00,,,0.00,274,WeatherCatV1.11B39,2013-08-14 00:32:00,
2013-08-13 17:37:00,101.1,39.1,29.68,West,268,4.0,10.0,12,0.00,,,0.00,258,WeatherCatV1.11B39,2013-08-14 00:37:00,
2013-08-13 17:42:00,100.8,38.8,29.67,West,268,10.0,11.0,12,0.00,,,0.00,239,WeatherCatV1.11B39,2013-08-14 00:42:00,
2013-08-13 17:47:00,100.4,40.6,29.67,WSW,255,7.0,11.0,13,0.00,,,0.00,190,WeatherCatV1.11B39,2013-08-14 00:47:00,
2013-08-13 17:52:00,100.2,38.4,29.67,West,275,11.0,13.0,12,0.00,,,0.00,190,WeatherCatV1.11B39,2013-08-14 00:52:00,
2013-08-13 17:57:00,99.7,40.1,29.67,West,278,4.0,12.0,13,0.00,,,0.00,162,WeatherCatV1.11B39,2013-08-14 00:57:00,
2013-08-13 18:02:00,99.6,40.0,29.67,West,272,8.0,16.0,13,0.00,,,0.00,130,WeatherCatV1.11B39,2013-08-14 01:02:00,
2013-08-13 18:07:00,99.4,39.8,29.67,West,264,12.0,12.0,13,0.00,,,0.00,139,WeatherCatV1.11B39,2013-08-14 01:07:00,
2013-08-13 18:12:00,99.3,39.7,29.67,West,267,4.0,10.0,13,0.00,,,0.00,120,WeatherCatV1.11B39,2013-08-14 01:12:00,
2013-08-13 18:17:00,99.1,39.6,29.67,WSW,258,8.0,11.0,13,0.00,,,0.00,104,WeatherCatV1.11B39,2013-08-14 01:17:00,
2013-08-13 18:22:00,98.7,39.3,29.67,West,261,9.0,14.0,13,0.00,,,0.00,62,WeatherCatV1.11B39,2013-08-14 01:22:00,
2013-08-13 18:28:00,98.1,38.8,29.67,WSW,257,7.0,12.0,13,0.00,,,0.00,58,WeatherCatV1.11B39,2013-08-14 01:28:00,
2013-08-13 18:33:00,97.7,38.5,29.67,WNW,284,6.0,7.0,13,0.00,,,0.00,35,WeatherCatV1.11B39,2013-08-14 01:33:00,
2013-08-13 18:38:00,97.4,40.2,29.67,West,281,6.0,7.0,14,0.00,,,0.00,28,WeatherCatV1.11B39,2013-08-14 01:38:00,
2013-08-13 18:43:00,97.2,40.0,29.67,West,269,13.0,13.0,14,0.00,,,0.00,19,WeatherCatV1.11B39,2013-08-14 01:43:00,
2013-08-13 18:48:00,96.9,39.8,29.67,West,280,2.0,7.0,14,0.00,,,0.00,12,WeatherCatV1.11B39,2013-08-14 01:48:00,
2013-08-13 18:53:00,96.5,39.5,29.67,West,275,8.0,8.0,14,0.00,,,0.00,9,WeatherCatV1.11B39,2013-08-14 01:53:00,
2013-08-13 18:58:00,96.2,39.2,29.67,West,280,8.0,8.0,14,0.00,,,0.00,7,WeatherCatV1.11B39,2013-08-14 01:58:00,
2013-08-13 19:03:00,96.0,39.1,29.67,West,274,3.0,7.0,14,0.00,,,0.00,7,WeatherCatV1.11B39,2013-08-14 02:03:00,
2013-08-13 19:08:00,95.5,40.5,29.67,West,270,4.0,5.0,15,0.00,,,0.00,5,WeatherCatV1.11B39,2013-08-14 02:08:00,
2013-08-13 19:13:00,95.5,40.5,29.67,WSW,257,3.0,3.0,15,0.00,,,0.00,0,WeatherCatV1.11B39,2013-08-14 02:13:00,
2013-08-13 19:18:00,94.9,40.0,29.67,WSW,240,2.0,6.0,15,0.00,,,0.00,0,WeatherCatV1.11B39,2013-08-14 02:18:00,
2013-08-13 19:23:00,94.5,41.3,29.67,WSW,241,2.0,2.0,16,0.00,,,0.00,0,WeatherCatV1.11B39,2013-08-14 02:23:00,
2013-08-13 19:28:00,94.0,40.9,29.67,WSW,241,1.0,1.0,16,0.00,,,0.00,0,WeatherCatV1.11B39,2013-08-14 02:28:00,
2013-08-13 19:33:00,93.1,40.2,29.67,WSW,241,1.0,1.0,16,0.00,,,0.00,0,WeatherCatV1.11B39,2013-08-14 02:33:00,
2013-08-13 19:38:00,92.4,41.2,29.67,WSW,240,0.0,1.0,17,0.00,,,0.00,0,WeatherCatV1.11B39,2013-08-14 02:38:00,
2013-08-13 19:43:00,91.5,42.0,29.67,WSW,240,0.0,1.0,18,0.00,,,0.00,0,WeatherCatV1.11B39,2013-08-14 02:43:00,
2013-08-13 19:48:00,91.3,40.3,29.67,SSE,155,2.0,4.0,17,0.00,,,0.00,0,WeatherCatV1.11B39,2013-08-14 02:48:00,
2013-08-13 19:53:00,91.2,41.7,29.68,ESE,122,1.0,3.0,18,0.00,,,0.00,0,WeatherCatV1.11B39,2013-08-14 02:53:00,
2013-08-13 19:58:00,91.1,40.2,29.68,ESE,120,2.0,5.0,17,0.00,,,0.00,0,WeatherCatV1.11B39,2013-08-14 02:58:00,
2013-08-13 20:03:00,91.1,40.2,29.69,ESE,112,3.0,5.0,17,0.00,,,0.00,0,WeatherCatV1.11B39,2013-08-14 03:03:00,
2013-08-13 20:08:00,91.0,40.1,29.69,East,95,1.0,4.0,17,0.00,,,0.00,0,WeatherCatV1.11B39,2013-08-14 03:08:00,
2013-08-13 20:13:00,90.7,41.3,29.69,East,95,2.0,2.0,18,0.00,,,0.00,0,WeatherCatV1.11B39,2013-08-14 03:13:00,
2013-08-13 20:18:00,90.5,41.2,29.70,ENE,77,2.0,3.0,18,0.00,,,0.00,0,WeatherCatV1.11B39,2013-08-14 03:18:00,
2013-08-13 20:23:00,90.6,41.3,29.70,East,80,5.0,5.0,18,0.00,,,0.00,0,WeatherCatV1.11B39,2013-08-14 03:23:00,
2013-08-13 20:28:00,90.4,41.1,29.70,East,95,3.0,5.0,18,0.00,,,0.00,0,WeatherCatV1.11B39,2013-08-14 03:28:00,
2013-08-13 20:33:00,90.4,41.1,29.70,ESE,107,2.0,5.0,18,0.00,,,0.00,0,WeatherCatV1.11B39,2013-08-14 03:33:00,
2013-08-13 20:38:00,90.5,41.2,29.71,ESE,110,1.0,4.0,18,0.00,,,0.00,0,WeatherCatV1.11B39,2013-08-14 03:38:00,
2013-08-13 20:43:00,90.5,41.2,29.71,ESE,116,2.0,4.0,18,0.00,,,0.00,0,WeatherCatV1.11B39,2013-08-14 03:43:00,
2013-08-13 20:48:00,90.5,41.2,29.71,ESE,112,2.0,3.0,18,0.00,,,0.00,0,WeatherCatV1.11B39,2013-08-14 03:48:00,
2013-08-13 20:53:00,90.3,41.0,29.72,ESE,111,2.0,2.0,18,0.00,,,0.00,0,WeatherCatV1.11B39,2013-08-14 03:53:00,
2013-08-13 20:58:00,89.5,41.8,29.72,ESE,110,0.0,2.0,19,0.00,,,0.00,0,WeatherCatV1.11B39,2013-08-14 03:58:00,
2013-08-13 21:01:00,89.2,41.5,29.72,ESE,110,1.0,1.0,19,0.00,,,0.00,0,WeatherCatV1.11B39,2013-08-14 04:01:00,
2013-08-13 21:06:00,88.7,41.1,29.72,ESE,110,1.0,1.0,19,0.00,,,0.00,0,WeatherCatV1.11B39,2013-08-14 04:06:00,
2013-08-13 21:11:00,87.9,41.8,29.72,ESE,110,1.0,1.0,20,0.00,,,0.00,0,WeatherCatV1.11B39,2013-08-14 04:11:00,
2013-08-13 21:16:00,87.0,41.0,29.72,ESE,110,1.0,2.0,20,0.00,,,0.00,0,WeatherCatV1.11B39,2013-08-14 04:16:00,
2013-08-13 21:21:00,86.1,41.6,29.73,ESE,110,0.0,1.0,21,0.00,,,0.00,0,WeatherCatV1.11B39,2013-08-14 04:21:00,
2013-08-13 21:26:00,86.2,41.7,29.73,ESE,111,2.0,3.0,21,0.00,,,0.00,0,WeatherCatV1.11B39,2013-08-14 04:26:00,
2013-08-13 21:31:00,87.5,41.5,29.73,ESE,106,2.0,5.0,20,0.00,,,0.00,0,WeatherCatV1.11B39,2013-08-14 04:31:00,
2013-08-13 21:36:00,88.5,40.9,29.73,ESE,105,2.0,2.0,19,0.00,,,0.00,0,WeatherCatV1.11B39,2013-08-14 04:36:00,
2013-08-13 21:41:00,88.3,42.1,29.73,ESE,105,0.0,0.0,20,0.00,,,0.00,0,WeatherCatV1.11B39,2013-08-14 04:41:00,
2013-08-13 21:46:00,87.2,41.2,29.73,ESE,105,0.0,1.0,20,0.00,,,0.00,0,WeatherCatV1.11B39,2013-08-14 04:46:00,
2013-08-13 21:51:00,86.0,41.5,29.73,ESE,105,2.0,3.0,21,0.00,,,0.00,0,WeatherCatV1.11B39,2013-08-14 04:51:00,
2013-08-13 21:56:00,85.8,41.3,29.73,ESE,105,2.0,4.0,21,0.00,,,0.00,0,WeatherCatV1.11B39,2013-08-14 04:56:00,
2013-08-13 22:01:00,86.3,41.7,29.73,ESE,105,0.0,2.0,21,0.00,,,0.00,0,WeatherCatV1.11B39,2013-08-14 05:01:00,
2013-08-13 22:06:00,87.5,41.5,29.73,ESE,105,0.0,2.0,20,0.00,,,0.00,0,WeatherCatV1.11B39,2013-08-14 05:06:00,
2013-08-13 22:11:00,86.8,43.4,29.73,ESE,105,0.0,1.0,22,0.00,,,0.00,0,WeatherCatV1.11B39,2013-08-14 05:11:00,
2013-08-13 22:16:00,85.8,42.5,29.73,ESE,105,0.0,1.0,22,0.00,,,0.00,0,WeatherCatV1.11B39,2013-08-14 05:16:00,
2013-08-13 22:21:00,85.0,43.0,29.73,ESE,105,0.0,0.0,23,0.00,,,0.00,0,WeatherCatV1.11B39,2013-08-14 05:21:00,
2013-08-13 22:26:00,84.4,42.5,29.73,ESE,105,0.0,0.0,23,0.00,,,0.00,0,WeatherCatV1.11B39,2013-08-14 05:26:00,
2013-08-13 22:31:00,83.9,42.1,29.73,ESE,105,0.0,1.0,23,0.00,,,0.00,0,WeatherCatV1.11B39,2013-08-14 05:31:00,
2013-08-13 22:36:00,83.4,42.8,29.73,ESE,105,0.0,1.0,24,0.00,,,0.00,0,WeatherCatV1.11B39,2013-08-14 05:36:00,
2013-08-13 22:41:00,82.4,43.0,29.73,ESE,105,2.0,2.0,25,0.00,,,0.00,0,WeatherCatV1.11B39,2013-08-14 05:41:00,
2013-08-13 22:46:00,82.2,42.8,29.73,ESE,105,0.0,2.0,25,0.00,,,0.00,0,WeatherCatV1.11B39,2013-08-14 05:46:00,
2013-08-13 22:51:00,82.1,42.8,29.74,ESE,105,1.0,2.0,25,0.00,,,0.00,0,WeatherCatV1.11B39,2013-08-14 05:51:00,
2013-08-13 22:56:00,82.2,42.8,29.73,ESE,105,0.0,1.0,25,0.00,,,0.00,0,WeatherCatV1.11B39,2013-08-14 05:56:00,
2013-08-13 23:01:00,82.4,43.0,29.73,ESE,105,0.0,2.0,25,0.00,,,0.00,0,WeatherCatV1.11B39,2013-08-14 06:01:00,
2013-08-13 23:06:00,82.5,43.1,29.74,ESE,105,0.0,0.0,25,0.00,,,0.00,0,WeatherCatV1.11B39,2013-08-14 06:06:00,
2013-08-13 23:11:00,81.9,43.6,29.74,ESE,105,3.0,3.0,26,0.00,,,0.00,0,WeatherCatV1.11B39,2013-08-14 06:11:00,
2013-08-13 23:16:00,81.8,43.5,29.74,ESE,105,1.0,3.0,26,0.00,,,0.00,0,WeatherCatV1.11B39,2013-08-14 06:16:00,
2013-08-13 23:21:00,82.2,43.9,29.74,ESE,105,0.0,2.0,26,0.00,,,0.00,0,WeatherCatV1.11B39,2013-08-14 06:21:00,
2013-08-13 23:26:00,82.2,43.9,29.74,ESE,103,1.0,4.0,26,0.00,,,0.00,0,WeatherCatV1.11B39,2013-08-14 06:26:00,
2013-08-13 23:31:00,82.5,43.1,29.74,ESE,103,2.0,3.0,25,0.00,,,0.00,0,WeatherCatV1.11B39,2013-08-14 06:31:00,
2013-08-13 23:36:00,82.9,43.4,29.74,ESE,103,1.0,2.0,25,0.00,,,0.00,0,WeatherCatV1.11B39,2013-08-14 06:36:00,
2013-08-13 23:41:00,83.1,43.6,29.74,ESE,103,0.0,0.0,25,0.00,,,0.00,0,WeatherCatV1.11B39,2013-08-14 06:41:00,
2013-08-13 23:46:00,82.6,43.2,29.74,ESE,103,0.0,0.0,25,0.00,,,0.00,0,WeatherCatV1.11B39,2013-08-14 06:46:00,
2013-08-13 23:51:00,82.0,43.7,29.74,ESE,103,0.0,0.0,26,0.00,,,0.00,0,WeatherCatV1.11B39,2013-08-14 06:51:00,
2013-08-13 23:56:00,81.2,45.0,29.74,ESE,103,0.0,0.0,28,0.00,,,0.00,0,WeatherCatV1.11B39,2013-08-14 06:56:00,